This is the latest recevied weather packets stored in our database for station/object WB5TZJ. If no packets are shown the sender has not sent any weather packets the latest 10 day(s).
| Time | Temp. | Humidity | Pressure | Rain* | Wind** | Luminosity | Snow |
|---|---|---|---|---|---|---|---|
| 1777545651 | 22.22° C | 45% | 1009.4 hPa | 0 mm | - | - | - |
| 1777545051 | 22.22° C | 45% | 1009.4 hPa | 0 mm | - | - | - |
| 1777544451 | 22.22° C | 46% | 1009.4 hPa | 0 mm | - | - | - |
| 1777544227 | 22.22° C | 45% | 1009.1 hPa | 0 mm | - | - | - |
| 1777543252 | 22.22° C | 45% | 1009.1 hPa | 0 mm | - | - | - |
| 1777542652 | 22.22° C | 46% | 1009.1 hPa | 0 mm | - | - | - |
| 1777542052 | 22.22° C | 43% | 1009.1 hPa | 0 mm | - | - | - |
| 1777541452 | 22.22° C | 44% | 1009.1 hPa | 0 mm | - | - | - |
| 1777540852 | 22.22° C | 47% | 1009.1 hPa | 0 mm | - | - | - |
| 1777540252 | 22.22° C | 43% | 1009.1 hPa | 0 mm | - | - | - |
| 1777539652 | 22.22° C | 44% | 1009.1 hPa | 0 mm | - | - | - |
| 1777539052 | 22.22° C | 45% | 1009.1 hPa | 0 mm | - | - | - |
| 1777538452 | 22.22° C | 46% | 1009.1 hPa | 0 mm | - | - | - |
| 1777537852 | 22.22° C | 44% | 1008.8 hPa | 0 mm | - | - | - |
| 1777537252 | 22.22° C | 44% | 1008.8 hPa | 0 mm | - | - | - |
| 1777536652 | 22.22° C | 43% | 1009.1 hPa | 0 mm | - | - | - |
| 1777536052 | 22.22° C | 43% | 1009.1 hPa | 0 mm | - | - | - |
| 1777535452 | 22.22° C | 43% | 1009.1 hPa | 0 mm | - | - | - |
| 1777534852 | 22.22° C | 43% | 1009.4 hPa | 0 mm | - | - | - |
| 1777534252 | 22.22° C | 43% | 1009.8 hPa | 0 mm | - | - | - |
| 1777533652 | 22.22° C | 43% | 1009.8 hPa | 0 mm | - | - | - |
| 1777533052 | 22.22° C | 43% | 1009.8 hPa | 0 mm | - | - | - |
| 1777532452 | 22.22° C | 44% | 1010.1 hPa | 0 mm | - | - | - |
| 1777531852 | 22.22° C | 44% | 1010.1 hPa | 0 mm | - | - | - |
| 1777531252 | 22.22° C | 44% | 1009.8 hPa | 0 mm | - | - | - |
* Rain latest hour (hover to see other rain measurements)
** Current wind speed in m/s (hover to see current wind gust speed)